sat.trackr.live / text

‹ back to catalog

BEIDOU-3 M16 (C35)

NORAD 43647 · 2018-078A

PAYLOAD ACTIVE UNKNOWN

§ Identity

Operator
Country
PRC
Launch date
2018-10-15
Launch site
XICLF
Launch vehicle
Mass (kg)
RCS (m²)

Purposes: nav

External: N2YO · Heavens-Above · Gunter

§ Orbital elements

Epoch: 2026-09-20T01:25:32.217888Z

Period
773.23 min
Inclination
54.0017°
Eccentricity
0.0006083
Mean motion
1.86232520 rev/d
Perigee alt
21,510.9 km
Apogee alt
21,544.9 km
Semi-major
27,906.0 km
B*
0.0000e+0
RAAN
296.6507°
Arg perigee
31.0628°
Mean anomaly
329.0331°
Rev number
5,392

§ Raw data

BEIDOU-3 M16 (C35)1 43647U 18078A   26263.05940067 -.00000021  00000+0  00000+0 0  99902 43647  54.0017 296.6507 0006083  31.0628 329.0331  1.86232520 53924

JSON: /api/v1/satellites/43647 · /tle

For live sub-satellite position, see the globe view (requires WebGL).

§ Visibility from observer

Set your observer location to see the next 7 days of passes ≥ 10°. The values pass through the URL so the page stays shareable.

No JS? Fill the form by hand. The geolocation button needs JavaScript.